Location: *
(42.3442°N, 9.2072°E)
Time: 15:26:19
(UTC+00:00)

Cosmos 1174 - Pass Details

Date: 12 August 2020
Orbit: 363 x 1155 km, 66.1° (Epoch: 23 September)

Event Time Altitude Azimuth Distance (km) Brightness Sun altitude
Rises 03:47:10 0° 179° (S) 2,538 6.9 -7.6°
Reaches altitude 10° 03:49:19 10° 166° (SSE) 1,767 6.3 -7.3°
Maximum altitude 03:52:41 27° 108° (ESE) 1,168 6.1 -6.7°
Drops below altitude 10° 03:56:45 10° 51° (NE) 2,173 8.5 -6.0°
Sets 03:59:41 0° 40° (NE) 3,259 9.2 -5.5°
